Weather in Golovinshchino

Russia / Penza Oblast     53°18′42″N   44°00′12″E
temp.,
°C
wind,
m/s
gust,
m/s
humid.,
%
clouds,
%
prec.,
mm/h
press.,
hPa
HPBL,
m
7 march, sun
sun700:00−10nw359696 0.3 1014104
03:00−15wnw349684 0.3 101442
06:00−16wsw349728 0.0 101551
09:00−12sw589459 0.0 1014247
12:00−8sw7128991 0.0 1011598
15:00−6sw10159296 0.1 1007988
18:00−5sw101893100 1.1 10031158
21:00−5sw111893100 2.3 10001023
8 march, mon
mon800:00−3sw101794100 1.1 9961049
03:00−4w91588100 1.8 998800
06:00−8wsw6148766 0.1 1000432
09:00−8wsw6128833 0.1 1002493
12:00−5wsw6108751 0.0 1002900
15:00−3wsw7118476 0.4 10021359
18:00−6w41090100 0.3 1002266
21:00−9w5129280 0.3 1005276
9 march, tue
tue900:00−13w479428 0.0 1007116
03:00−16wnw349728 0.0 100936
06:00−17wnw339865 0.0 101123
09:00−14nw359576 0.0 1012195
12:00−10nw349190 0.0 1012365
15:00−9nw459095 0.1 1013613
18:00−12nw3396100 0.1 101457
21:00−13nw499599 0.3 1016300
10 march, wed
wed1000:00−16nw479793 0.1 1017149
03:00−20nw3410090 0.1 101962
06:00−22nw4610098 0.0 1020113
09:00−21nw489799 0.1 1022264
12:00−18nw4793100 0.0 1023447
15:00−17nw5789100 0.0 1024600
18:00−21nw3497100 0.0 102546
21:00−23nnw33100100 0.1 102734
11 march, thu
thu1100:00−25nw3310082 0.0 102820
03:00−26nw239740 0.0 102919
06:00−26wnw33950 0.0 103025
09:00−21wnw46870 0.0 1030194
12:00−16wnw46860 0.0 1030305
15:00−14w46860 0.0 1030291
18:00−18wsw34910 0.0 103031
21:00−20sw34910 0.0 103139